Weather in Hanimaadhoo

Maldives     6°44′42″N   73°10′08″E
temp.,
°C
wind,
m/s
gust,
m/s
humid.,
%
clouds,
%
prec.,
mm/h
press.,
hPa
HPBL,
m
23 april, fri
fri2323:00+29w44722 0.0 1012870
02:00+29w447349 0.2 1010721
05:00+29wsw447166 1.3 1010892
08:00+29w337123 0.0 1012869
11:00+29w227298 0.1 1012766
14:00+29wnw33735 1.5 1010810
17:00+29wnw447140 1.5 1009902
20:00+29w33721 0.0 1011835
24 april, sat
sat2423:00+29w33724 0.0 1011788
02:00+28w33748 0.1 1009772
05:00+28wnw337495 0.2 1009577
08:00+29wnw2271100 0.0 1011433
11:00+29wnw2268100 0.1 1011428
14:00+29nw33696 0.1 1008795
17:00+29nw22675 0.1 1008794
20:00+29wnw11675 0.0 1010664
25 april, sun
sun2523:00+29wsw1169100 0.0 1011620
02:00+28wnw227231 0.0 1009728
05:00+28nw227397 0.0 1009721
08:00+28nw227417 0.0 1012681
11:00+29wnw117199 0.0 1011626
14:00+29w227058 0.0 1008705
17:00+29w337099 0.0 1008769
20:00+29wnw337239 0.0 1010804
26 april, mon
mon2623:00+29w227291 0.0 1010701
02:00+28wnw227425 0.9 1008645
05:00+28wnw22743 0.9 1008592
08:00+29wnw22731 0.0 1011697
11:00+29nw22709 0.0 1010798
14:00+29nnw33692 0.0 1008850
17:00+29nnw22662 0.0 1007834
20:00+29wnw11652 0.0 1009741
27 april, tue
tue2723:00+29wsw11672 0.0 1010653
02:00+29wsw22700 0.0 1008652
05:00+29sw33713 0.0 1008624
08:00+29sw22695 0.0 1011540
11:00+29wsw226764 0.0 1011579
14:00+29wnw226690 0.0 1008788
17:00+29wnw11665 0.0 1008873
20:00+29wsw22686 0.0 1010787